Location: DARK SKY Beskydy - Park tmavé oblohy, www.darkskybeskydy.cz
(49.4926°N, 18.5016°E)
Time: 10:55:00
(UTC+02:00)

Transit 4A - Pass Details

Date: 02 March 2024
Orbit: 871 x 971 km, 66.8° (Epoch: 24 April)

Event Time Altitude Azimuth Distance (km) Brightness Sun altitude
Exits shadow 02:26:39 21° 354° (N) 1,902 9.7 -37.4°
Drops below altitude 10° 02:29:47 10° 24° (NNE) 2,569 10.8 -37.0°
Sets 02:32:48 0° 39° (NE) 3,497 11.8 -36.6°
